This demonstration page uses our WeatherBlox Daily Observations layout. Learn more.

Left ArrowRight Arrow

Hourly Observations for July 4, 2022

Temp ( °F °C ) Dew Point ( °F °C ) Humidity (%) Winds ( mph kmh ) Pressure ( in mb ) Visibility ( mi km ) Precip ( " mm )
12:52 am 00:52 Clear 77 25 73 22.8 88 88 SSE 6 9 29.99 1016 10 16 0.00 0.00
1:52 am 01:52 Clear 77 25 72 22.2 85 85 SSE 7 11 29.98 1015 10 16 0.00 0.00
2:52 am 02:52 Clear 76 24.4 71 21.7 85 85 SSE 8 13 29.98 1015 10 16 0.00 0.00
3:52 am 03:52 Clear 75 23.9 71 21.7 88 88 SSE 9 15 30.00 1016 10 16 0.00 0.00
4:52 am 04:52 Clear 75 23.9 71 21.7 88 88 S 8 13 30.01 1016 10 16 0.00 0.00
5:52 am 05:52 Clear 75 23.9 71 21.7 88 88 SSE 9 15 30.01 1016 10 16 0.00 0.00
6:52 am 06:52 Sunny 75 23.9 71 21.7 88 88 SSE 12 19 30.01 1016 10 16 0.00 0.00
7:52 am 07:52 Sunny 79 26.1 71 21.7 77 77 SSE 10 17 30.01 1016 10 16 0.00 0.00
8:52 am 08:52 Sunny 82 27.8 73 22.8 74 74 S 10 17 30.02 1017 10 16 0.00 0.00
9:52 am 09:52 Sunny 86 30 74 23.3 67 67 S 13 20 30.01 1016 10 16 0.00 0.00
10:52 am 10:52 Sunny 89 31.7 74 23.3 61 61 SSW 14 22 30.00 1016 10 16 0.00 0.00
11:52 am 11:52 Sunny 92 33.3 73 22.8 54 54 SSW 10 17 29.99 1016 10 16 0.00 0.00
12:52 pm 12:52 Sunny 96 35.6 70 21.1 43 43 SSW 10 17 29.98 1015 10 16 0.00 0.00
1:52 pm 13:52 Sunny 96 35.6 70 21.1 43 43 WSW 13 20 29.96 1015 10 16 0.00 0.00
2:52 pm 14:52 Mostly Sunny 97 36.1 67 19.4 37 37 WSW 14 22 29.94 1014 10 16 0.00 0.00
3:52 pm 15:52 Mostly Sunny 97 36.1 68 20 39 39 SW 9 15 29.94 1014 10 16 0.00 0.00
4:52 pm 16:52 Sunny 98 36.7 68 20 38 38 WSW 13 20 29.92 1013 10 16 0.00 0.00
5:52 pm 17:52 Sunny 96 35.6 68 20 40 40 W 10 17 29.91 1013 10 16 0.00 0.00
6:52 pm 18:52 Sunny 94 34.4 69 20.6 44 44 SSW 8 13 29.91 1013 10 16 0.00 0.00
7:52 pm 19:52 Sunny 91 32.8 70 21.1 50 50 SW 8 13 29.91 1013 10 16 0.00 0.00
8:52 pm 20:52 Clear 86 30 70 21.1 59 59 SSW 6 9 29.92 1013 10 16 0.00 0.00
9:52 pm 21:52 Clear 86 30 72 22.2 63 63 SSE 10 17 29.93 1013 7 11 0.00 0.00
10:52 pm 22:52 Clear 84 28.9 73 22.8 70 70 SSE 8 13 29.95 1014 8 13 0.00 0.00
11:52 pm 23:52 Clear 83 28.3 73 22.8 72 72 SSE 10 17 29.95 1014 9 14 0.00 0.00

Powered by AerisWeather